Stations météo

réclame
Mon MeteoGroup
Aonach Mor, Grande-Bretagne (3041): Température de l'air & dewpoint: 19.01.2020 00:00:00 - 25.01.2020 00:00:00 (GMT)Aonach Mor, Grande-Bretagne (3041): Vitesse du vent & gusts: 19.01.2020 00:00:00 - 25.01.2020 00:00:00 (GMT)Aonach Mor, Grande-Bretagne (3041): Direction du vent: 19.01.2020 00:00:00 - 25.01.2020 00:00:00 (GMT)
Date & Time tt [°C] td [°C] ff [km/h] ff [knt] fx [km/h] fx [knt] dd
25.01.2020 00:00:00 0,9 0,9 89 48 111 60 SSW
24.01.2020 23:00:00 1,5 1,5 80 43 109 59 SSW
24.01.2020 22:00:00 1,9 1,9 63 34 94 51 SSW
24.01.2020 21:00:00 2,4 2,4 59 32 89 48 SSW
24.01.2020 20:00:00 2,2 2,2 46 25 83 45 SSW
24.01.2020 19:00:00 1,4 1,4 37 20 67 36 SW
24.01.2020 18:00:00 1,1 1,1 41 22 70 38 SW
24.01.2020 17:00:00 0,2 0,2 34 18 70 38 SW
24.01.2020 16:00:00 0,1 0,1 34 18 59 32 SSW
24.01.2020 15:00:00 -0,2 -0,2 41 22 67 36 SW
24.01.2020 14:00:00 -0,6 -0,6 39 21 68 37 SSW
24.01.2020 13:00:00 -0,6 -0,6 28 15 57 31 WSW
24.01.2020 12:00:00 -0,8 -0,8 42 23 55 30 SW
24.01.2020 11:00:00 -1,0 -1,0 41 22 59 32 SW
24.01.2020 10:00:00 -0,9 -0,9 34 18 63 34 SW
24.01.2020 09:00:00 -0,6 -0,6 37 20 61 33 SW
24.01.2020 08:00:00 -0,3 -0,3 35 19 - - SW
24.01.2020 07:00:00 -0,7 -0,7 42 23 57 31 SW
24.01.2020 06:00:00 -0,1 -0,1 46 25 67 36 SW
24.01.2020 05:00:00 0,4 0,4 44 24 59 32 WSW
24.01.2020 04:00:00 1,1 1,1 44 24 57 31 WSW
24.01.2020 03:00:00 1,4 1,4 42 23 72 39 WSW
24.01.2020 02:00:00 1,6 1,6 57 31 91 49 WSW
24.01.2020 01:00:00 2,4 2,4 42 23 94 51 SW
24.01.2020 00:00:00 2,4 2,4 59 32 94 51 SW
23.01.2020 23:00:00 2,3 2,3 39 21 85 46 SW
23.01.2020 22:00:00 2,2 2,2 54 29 87 47 SW
23.01.2020 21:00:00 2,2 2,2 46 25 93 50 SW
23.01.2020 20:00:00 1,9 1,9 46 25 89 48 SW
23.01.2020 19:00:00 1,8 1,8 46 25 81 44 SW
23.01.2020 18:00:00 1,7 1,7 50 27 74 40 SW
23.01.2020 17:00:00 1,7 1,7 48 26 87 47 SW
23.01.2020 16:00:00 1,7 1,7 46 25 80 43 SSW
23.01.2020 15:00:00 1,5 1,5 42 23 80 43 SW
23.01.2020 14:00:00 1,7 1,7 42 23 83 45 SW
23.01.2020 13:00:00 1,3 1,3 41 22 72 39 SW
23.01.2020 12:00:00 1,1 1,1 46 25 83 45 SSW
23.01.2020 11:00:00 0,6 0,6 54 29 87 47 SW
23.01.2020 10:00:00 0,7 0,7 48 26 74 40 SW
23.01.2020 09:00:00 0,3 0,3 52 28 74 40 SW
23.01.2020 08:00:00 0,2 0,2 48 26 87 47 SW
23.01.2020 07:00:00 0,3 0,3 54 29 80 43 SW
23.01.2020 06:00:00 0,5 0,5 39 21 85 46 SSW
23.01.2020 05:00:00 0,8 0,8 41 22 87 47 SW
23.01.2020 04:00:00 0,7 0,7 48 26 87 47 SW
23.01.2020 03:00:00 0,5 0,5 24 13 76 41 SW
23.01.2020 02:00:00 1,7 1,7 42 23 76 41 WSW
23.01.2020 01:00:00 1,7 1,7 54 29 87 47 SW
23.01.2020 00:00:00 1,6 1,6 37 20 68 37 SW
22.01.2020 23:00:00 1,9 1,9 46 25 81 44 SW
22.01.2020 22:00:00 2,3 2,3 39 21 76 41 SW
22.01.2020 21:00:00 2,9 2,9 31 17 67 36 SSW
22.01.2020 20:00:00 3,0 3,0 37 20 80 43 SW
22.01.2020 19:00:00 3,1 3,1 31 17 50 27 SW
22.01.2020 18:00:00 3,1 3,1 28 15 - - WSW
22.01.2020 17:00:00 3,5 3,5 21 11 - - WSW
22.01.2020 16:00:00 4,3 4,3 22 12 - - WSW
22.01.2020 15:00:00 4,4 4,4 13 7 - - W
22.01.2020 14:00:00 5,2 5,2 18 10 - - WSW
22.01.2020 13:00:00 5,5 5,5 18 10 - - WSW
22.01.2020 12:00:00 4,8 4,8 22 12 - - WSW
22.01.2020 11:00:00 4,5 4,5 18 10 - - WSW
22.01.2020 10:00:00 4,6 4,6 39 21 54 29 WSW
22.01.2020 09:00:00 4,2 4,2 41 22 54 29 WSW
22.01.2020 08:00:00 4,2 4,2 39 21 55 30 WSW
22.01.2020 07:00:00 4,1 4,1 44 24 63 34 WSW
22.01.2020 06:00:00 3,7 3,7 46 25 63 34 SW
22.01.2020 05:00:00 3,6 3,6 44 24 59 32 SW
22.01.2020 04:00:00 3,9 3,9 39 21 57 31 SW
22.01.2020 03:00:00 4,2 4,2 35 19 50 27 WSW
22.01.2020 02:00:00 4,4 4,4 34 18 - - WSW
22.01.2020 01:00:00 4,6 4,6 21 11 - - W
22.01.2020 00:00:00 4,6 4,6 24 13 - - W
21.01.2020 23:00:00 4,5 4,5 21 11 - - W
21.01.2020 22:00:00 4,6 4,6 31 17 - - WSW
21.01.2020 21:00:00 4,4 4,4 31 17 - - WSW
21.01.2020 20:00:00 4,3 4,3 31 17 - - WSW
21.01.2020 19:00:00 4,1 4,1 34 18 52 28 WSW
21.01.2020 18:00:00 4,1 4,1 35 19 50 27 WSW
21.01.2020 17:00:00 4,0 4,0 37 20 59 32 WSW
21.01.2020 16:00:00 4,1 4,1 50 27 61 33 WSW
21.01.2020 15:00:00 4,0 4,0 50 27 72 39 WSW
21.01.2020 14:00:00 4,3 4,3 55 30 74 40 WSW
21.01.2020 13:00:00 4,3 4,3 48 26 70 38 WSW
21.01.2020 12:00:00 4,2 4,2 35 19 80 43 SW
21.01.2020 11:00:00 4,4 4,4 42 23 72 39 SW
21.01.2020 10:00:00 3,8 3,8 26 14 68 37 SW
21.01.2020 09:00:00 4,5 4,5 44 24 76 41 SSW
21.01.2020 08:00:00 3,8 3,8 26 14 46 25 SW
21.01.2020 07:00:00 3,7 3,7 34 18 - - SW
21.01.2020 06:00:00 3,8 3,8 39 21 52 28 WSW
21.01.2020 05:00:00 3,6 3,6 42 23 70 38 WSW
21.01.2020 04:00:00 3,6 3,6 59 32 78 42 WSW
21.01.2020 03:00:00 3,5 3,5 61 33 93 50 WSW
21.01.2020 02:00:00 3,4 3,4 63 34 89 48 SW
21.01.2020 01:00:00 3,1 3,1 67 36 91 49 SW
21.01.2020 00:00:00 2,5 2,5 68 37 106 57 SW
20.01.2020 23:00:00 2,6 2,6 63 34 100 54 SW
20.01.2020 22:00:00 2,8 2,8 61 33 104 56 SW
20.01.2020 21:00:00 2,1 2,1 65 35 128 69 SSW
20.01.2020 20:00:00 1,6 1,6 70 38 120 65 SSW
20.01.2020 19:00:00 2,1 2,1 65 35 117 63 SSW
20.01.2020 18:00:00 1,1 1,1 54 29 117 63 SSW
20.01.2020 17:00:00 1,2 0,9 44 24 89 48 SW
20.01.2020 16:00:00 1,1 1,1 42 23 94 51 SSW
20.01.2020 15:00:00 2,0 -1,0 42 23 98 53 SW
20.01.2020 14:00:00 3,5 -2,6 31 17 85 46 SW
20.01.2020 13:00:00 4,8 -2,9 41 22 96 52 SW
20.01.2020 12:00:00 4,9 -1,4 35 19 85 46 SW
20.01.2020 11:00:00 4,7 1,9 44 24 85 46 SW
20.01.2020 10:00:00 0,7 0,7 52 28 85 46 SSW
20.01.2020 09:00:00 0,8 0,8 52 28 98 53 SSW
20.01.2020 08:00:00 0,6 0,6 67 36 106 57 SSW
20.01.2020 07:00:00 2,1 2,1 68 37 106 57 SSW
20.01.2020 06:00:00 0,8 0,8 83 45 107 58 SSW
20.01.2020 05:00:00 1,3 1,3 65 35 115 62 SSW
20.01.2020 04:00:00 0,4 0,4 63 34 106 57 SSW
20.01.2020 03:00:00 0,5 0,5 59 32 109 59 SW
20.01.2020 02:00:00 0,4 0,4 61 33 106 57 SSW
20.01.2020 01:00:00 0,3 0,3 61 33 119 64 SSW
20.01.2020 00:00:00 0,2 0,2 67 36 119 64 SW
19.01.2020 23:00:00 0,1 0,1 59 32 102 55 SW
19.01.2020 22:00:00 0,1 0,1 50 27 91 49 SSW
19.01.2020 21:00:00 0,1 0,1 52 28 113 61 SW
19.01.2020 20:00:00 0,0 0,0 63 34 115 62 SW
19.01.2020 19:00:00 -0,3 -0,3 63 34 111 60 SW
19.01.2020 18:00:00 -0,8 -0,8 54 29 119 64 SSW
19.01.2020 17:00:00 -1,9 -3,8 80 43 137 74 SW
19.01.2020 16:00:00 -1,7 -2,0 85 46 133 72 SSW
19.01.2020 15:00:00 -1,8 -2,3 85 46 131 71 SSW
19.01.2020 14:00:00 -2,5 -3,9 89 48 131 71 SSW
19.01.2020 13:00:00 -3,0 -4,7 93 50 115 62 SSW
19.01.2020 12:00:00 -3,0 -4,9 70 38 115 62 SSW
19.01.2020 11:00:00 -3,8 -5,4 67 36 107 58 SSW
19.01.2020 10:00:00 -3,3 -3,6 50 27 89 48 SSW
19.01.2020 09:00:00 -2,0 -2,0 35 19 70 38 SW
19.01.2020 08:00:00 -1,8 -1,8 39 21 80 43 SSW
19.01.2020 07:00:00 -1,7 -1,7 31 17 65 35 SW
19.01.2020 06:00:00 -2,1 -2,1 42 23 61 33 WSW
19.01.2020 05:00:00 -2,5 -2,5 44 24 59 32 WSW
19.01.2020 04:00:00 -2,9 -2,9 39 21 55 30 WSW
19.01.2020 03:00:00 -2,8 -2,8 39 21 54 29 WSW
19.01.2020 02:00:00 -2,8 -2,8 35 19 48 26 WSW
19.01.2020 01:00:00 -2,8 -2,8 37 20 52 28 WSW
19.01.2020 00:00:00 -2,9 -2,9 31 17 119 64 WSW

tt = Température de l'air
td = dewpoint
ff = Vitesse du vent
fx = gusts
dd = Direction du vent

stations d'obs. à proximité